Hourly Data Report for April 23, 2012

HALIFAX STANFIELD INT'L A
NOVA SCOTIA

44°52'48.060" N
63°30'00.050" W
145.40 m
8202250
71395
YHZ

Download Data

Hourly Data (April 2012)
Hourly Data Report for April 23, 2012
TIME
LST
Temp Definition
°C
Dew Point Definition
°C
Rel Hum Definition
%
Precip. Amount Definition
mm

Wind Dir Definition
10's deg

Wind Spd Definition
km/h
Visibility Definition
km
Stn Press Definition
kPa
Hmdx Definition


Wind Chill Definition


Weather Definition


00:00 2.7 2.4 98   2 15 1.6 99.90     Drizzle, Fog
01:00 2.4 2.1 98   2 17 1.6 99.91     Drizzle, Fog
02:00 2.5 2.1 97   2 20 0.8 99.89     Fog
03:00 2.5 2.2 98   2 13 0.8 99.92     Fog
04:00 2.5 2.3 99   4 15 0.8 99.86     Fog
05:00 2.6 2.4 99   4 13 0.8 99.83     Fog
06:00 2.9 2.7 99   3 11 0.6 99.78     Fog
07:00 3.8 3.7 99   5 6 0.6 99.83     Fog
08:00 5.1 5.1 100   8 11 0.4 99.83     Drizzle, Fog
09:00 6.4 6.4 100   10 19 0.2 99.81     Drizzle, Fog
10:00 8.3 8.3 100   11 15 0.2 99.78     Drizzle, Fog
11:00 9.7 9.7 100   11 28 0.2 99.74     Drizzle, Fog
12:00 10.9 10.9 100   12 24 0.2 99.69     Drizzle, Fog
13:00 11.6 11.6 100   12 20 0.2 99.68     Fog
14:00 13.6 13.6 100   14 24 9.7 99.58     Fog
15:00 13.8 13.6 99   14 26 12.9 99.55     Cloudy
16:00 14.2 13.5 96   15 32 16.1 99.51     Cloudy
17:00 14.4 13.7 96   14 32 9.7 99.49     Fog
18:00 14.6 13.8 95   15 39 4.8 99.45     Rain Showers, Fog
19:00 14.2 13.6 96   15 33 4.8 99.43     Rain Showers, Fog
20:00 13.3 13.0 98   14 33 4.0 99.45     Rain Showers, Fog
21:00 13.5 13.2 98   15 32 4.0 99.46     Rain Showers, Fog
22:00 13.5 13.0 97   14 32 8.0 99.40     Fog
23:00 13.4 12.9 97   15 33 3.2 99.33     Rain Showers, Fog

Notes on Data Quality.

Legend

  • E = Estimated
  • M = Missing
  • NA = Not Available*
  • [empty] = Indicates an unobserved value
Date modified: